Tracking 19193 objects as of 24-Jun-2018
HD Live streaming from Space Station
objects crossing your sky now

SKYNET 4A


SKYNET 4A is classified as:


NORAD ID: 20401
Int'l Code: 1990-001A
Launch date: January 1, 1990
Source: United Kingdom (UK)
Launch site: AIR FORCE EASTERN TEST RANGE (AFETR)
aabbcc
Your satellite tracking list
Your tracking list is empty




NASA's NSSDC Master Catalog

Two Line Element Set (TLE):
1 20401U 90001A   18174.52340877 -.00000061  00000-0  00000+0 0  9991
2 20401  13.3759   9.3811 0014346 254.1850 288.1386  0.98995287100006
Source of the keplerian elements: AFSPC